WJA2134 KFLL-CYEG

Flight info

Callsign WJA2134
Flight time N/A
Altitude 35000
Route LLBOW ROOOM YOLOO LRICK AGERS PERTS AARPS MMART ENWOD SEAZY YANTI LAJUG TWAIN MIVUK CAMRA IGSOG JEVON KEKBI
Aircraft B738/M-VGDW/C

Departure

Time N/A
Airport Fort Lauderdale Hollywood International Airport (KFLL)

Arrival

Time 2026-05-04 08:00
Airport Edmonton International Airport (CYEG)
Time Latitude Longitude Altitude Speed Heading
2026-05-04 03:10 30.88445 -82.36810 35137 ft 466 kts 326°
2026-05-04 03:11 30.91157 -82.38266 35154 ft 466 kts 326°
2026-05-04 03:11 30.97061 -82.41439 35133 ft 467 kts 326°
2026-05-04 03:12 31.02957 -82.44611 35118 ft 467 kts 326°
2026-05-04 03:12 31.08867 -82.47795 35112 ft 467 kts 327°
2026-05-04 03:13 31.14722 -82.50954 35104 ft 467 kts 327°
2026-05-04 03:13 31.20618 -82.54141 35104 ft 467 kts 327°
2026-05-04 03:14 31.26460 -82.57303 35103 ft 467 kts 327°
2026-05-04 03:14 31.32355 -82.60497 35096 ft 467 kts 327°
2026-05-04 03:15 31.38229 -82.63684 35082 ft 468 kts 327°
2026-05-04 03:15 31.44161 -82.66907 35131 ft 468 kts 327°
2026-05-04 03:16 31.50055 -82.70114 35179 ft 468 kts 328°
2026-05-04 03:16 31.55595 -82.73133 35199 ft 469 kts 328°
2026-05-04 03:17 31.61496 -82.76353 35195 ft 469 kts 328°
2026-05-04 03:17 31.67436 -82.79597 35170 ft 468 kts 328°
2026-05-04 03:18 31.73300 -82.82807 35177 ft 467 kts 328°
2026-05-04 03:18 31.79166 -82.86080 35176 ft 464 kts 325°
2026-05-04 03:19 31.84245 -82.90496 35225 ft 450 kts 313°
2026-05-04 03:19 31.89068 -82.95187 35185 ft 454 kts 317°
2026-05-04 03:20 31.94215 -82.99422 35180 ft 456 kts 320°
2026-05-04 03:20 31.99512 -83.03724 35180 ft 455 kts 319°
2026-05-04 03:21 32.04628 -83.08045 35184 ft 454 kts 318°
2026-05-04 03:21 32.09718 -83.12443 35184 ft 453 kts 318°
2026-05-04 03:22 32.14816 -83.16878 35179 ft 453 kts 318°
2026-05-04 03:22 32.19887 -83.21293 35160 ft 453 kts 319°
2026-05-04 03:23 32.24923 -83.25678 35164 ft 452 kts 319°
2026-05-04 03:23 32.29967 -83.30073 35164 ft 452 kts 319°
2026-05-04 03:24 32.35037 -83.34497 35149 ft 451 kts 319°
2026-05-04 03:24 32.40100 -83.38923 35157 ft 450 kts 319°
2026-05-04 03:25 32.45100 -83.43298 35158 ft 449 kts 320°
2026-05-04 03:25 32.50151 -83.47724 35161 ft 447 kts 320°
2026-05-04 03:26 32.55120 -83.52085 35169 ft 446 kts 320°
2026-05-04 03:26 32.60117 -83.56477 35159 ft 445 kts 320°
2026-05-04 03:27 32.64890 -83.60678 35170 ft 444 kts 321°
2026-05-04 03:27 32.69595 -83.64825 35184 ft 443 kts 321°
2026-05-04 03:28 32.74549 -83.69197 35184 ft 442 kts 321°
2026-05-04 03:28 32.79480 -83.73554 35183 ft 441 kts 321°
2026-05-04 03:29 32.84403 -83.77912 35177 ft 441 kts 321°
2026-05-04 03:29 32.89294 -83.82246 35170 ft 440 kts 321°
2026-05-04 03:30 32.94208 -83.86608 35171 ft 440 kts 321°
2026-05-04 03:30 32.99104 -83.90959 35171 ft 439 kts 321°
2026-05-04 03:31 33.03991 -83.95309 35184 ft 439 kts 321°
2026-05-04 03:31 33.08892 -83.99677 35160 ft 438 kts 321°
2026-05-04 03:32 33.13763 -84.04024 35163 ft 438 kts 321°
2026-05-04 03:32 33.18598 -84.08346 35182 ft 437 kts 321°
2026-05-04 03:33 33.23455 -84.12694 35192 ft 436 kts 321°
2026-05-04 03:33 33.28269 -84.17009 35218 ft 435 kts 321°
2026-05-04 03:34 33.32298 -84.20625 35221 ft 435 kts 321°
2026-05-04 03:34 33.37147 -84.24983 35234 ft 434 kts 321°
2026-05-04 03:35 33.41700 -84.29081 35236 ft 433 kts 321°
2026-05-04 03:35 33.46473 -84.33388 35231 ft 433 kts 321°
2026-05-04 03:36 33.51234 -84.37683 35221 ft 432 kts 321°
2026-05-04 03:36 33.56016 -84.42002 35181 ft 431 kts 321°
2026-05-04 03:37 33.60820 -84.46348 35181 ft 431 kts 321°
2026-05-04 03:37 33.65606 -84.50685 35200 ft 430 kts 321°
2026-05-04 03:38 33.70342 -84.54985 35188 ft 429 kts 321°
2026-05-04 03:38 33.75079 -84.59291 35193 ft 429 kts 321°
2026-05-04 03:39 33.79482 -84.63298 35201 ft 428 kts 321°
2026-05-04 03:39 33.84241 -84.67634 35121 ft 429 kts 321°
2026-05-04 03:39 33.86616 -84.69796 34905 ft 431 kts 321°
2026-05-04 03:40 33.89003 -84.71973 34614 ft 431 kts 321°
2026-05-04 03:40 33.91373 -84.74135 34026 ft 428 kts 321°
2026-05-04 03:40 33.93736 -84.76293 33872 ft 413 kts 321°
2026-05-04 03:40 33.95943 -84.78311 34593 ft 388 kts 321°
2026-05-04 03:41 33.96341 -84.78674 34705 ft 386 kts 321°
2026-05-04 03:41 33.97437 -84.79677 34850 ft 386 kts 321°
2026-05-04 03:41 33.99560 -84.81625 34850 ft 389 kts 321°
2026-05-04 03:41 34.01705 -84.83596 35022 ft 389 kts 320°
2026-05-04 03:42 34.03830 -84.85549 35066 ft 391 kts 320°
2026-05-04 03:42 34.08190 -84.89559 35106 ft 396 kts 320°
2026-05-04 03:43 34.12608 -84.93623 35114 ft 403 kts 320°
2026-05-04 03:43 34.17102 -84.97762 35120 ft 408 kts 320°
2026-05-04 03:44 34.21631 -85.01937 35114 ft 414 kts 320°
2026-05-04 03:44 34.26241 -85.06192 35095 ft 419 kts 321°
2026-05-04 03:45 34.30878 -85.10478 35091 ft 422 kts 320°
2026-05-04 03:45 34.35560 -85.14812 35070 ft 424 kts 320°
2026-05-04 03:46 34.40247 -85.19157 35067 ft 424 kts 320°
2026-05-04 03:46 34.44894 -85.23470 35064 ft 422 kts 320°
2026-05-04 03:47 34.49582 -85.27828 35069 ft 421 kts 320°
2026-05-04 03:47 34.54201 -85.32130 35067 ft 420 kts 320°
2026-05-04 03:48 34.58824 -85.36440 35068 ft 419 kts 320°
2026-05-04 03:48 34.63290 -85.40611 35093 ft 418 kts 320°
2026-05-04 03:49 34.67870 -85.44895 35070 ft 418 kts 320°
2026-05-04 03:49 34.72491 -85.49222 35101 ft 417 kts 320°
2026-05-04 03:50 34.77033 -85.53482 35078 ft 417 kts 320°
2026-05-04 03:50 34.81673 -85.57839 35086 ft 417 kts 320°
2026-05-04 03:51 34.86258 -85.62152 35075 ft 417 kts 320°
2026-05-04 03:51 34.90852 -85.66479 35061 ft 417 kts 320°
2026-05-04 03:52 34.95431 -85.70798 35069 ft 416 kts 320°
2026-05-04 03:52 34.99928 -85.75046 35077 ft 415 kts 320°
2026-05-04 03:53 35.04502 -85.79373 35079 ft 415 kts 320°
2026-05-04 03:53 35.09062 -85.83694 35063 ft 415 kts 320°
2026-05-04 03:54 35.13632 -85.88029 35071 ft 415 kts 320°
2026-05-04 03:54 35.18078 -85.92254 35074 ft 414 kts 320°
2026-05-04 03:55 35.22619 -85.96574 35069 ft 413 kts 319°
2026-05-04 03:55 35.27138 -86.00880 35079 ft 411 kts 320°
2026-05-04 03:56 35.31666 -86.05201 35080 ft 411 kts 319°
2026-05-04 03:56 35.36068 -86.09409 35072 ft 410 kts 319°
2026-05-04 03:57 35.40572 -86.13719 35070 ft 410 kts 319°
2026-05-04 03:57 35.45064 -86.18025 35051 ft 410 kts 319°
2026-05-04 03:58 35.51813 -86.24505 35048 ft 410 kts 319°
2026-05-04 03:58 35.56223 -86.28747 35046 ft 410 kts 319°
2026-05-04 03:59 35.60701 -86.33060 35058 ft 409 kts 319°
2026-05-04 03:59 35.65157 -86.37359 35051 ft 409 kts 319°
2026-05-04 04:00 35.69631 -86.41682 35062 ft 409 kts 319°
2026-05-04 04:00 35.74131 -86.46036 35046 ft 409 kts 319°
2026-05-04 04:01 35.78566 -86.50333 35035 ft 408 kts 319°
2026-05-04 04:01 35.83006 -86.54641 35023 ft 408 kts 319°
2026-05-04 04:02 35.87411 -86.58922 35045 ft 408 kts 319°
2026-05-04 04:02 35.91928 -86.63318 35049 ft 408 kts 319°
2026-05-04 04:03 35.96343 -86.67621 35058 ft 407 kts 319°
2026-05-04 04:03 36.00793 -86.71965 35040 ft 407 kts 319°
2026-05-04 04:04 36.05175 -86.76249 35034 ft 407 kts 319°
2026-05-04 04:04 36.09638 -86.80617 35023 ft 407 kts 318°
2026-05-04 04:05 36.14019 -86.84914 35000 ft 405 kts 318°
2026-05-04 04:05 36.18432 -86.89248 35013 ft 404 kts 318°
2026-05-04 04:06 36.22844 -86.93586 35010 ft 403 kts 318°
2026-05-04 04:06 36.27240 -86.97915 35006 ft 403 kts 318°
2026-05-04 04:07 36.31634 -87.02249 35014 ft 403 kts 318°
2026-05-04 04:07 36.36028 -87.06590 35004 ft 403 kts 318°
2026-05-04 04:08 36.40399 -87.10914 34996 ft 404 kts 318°
2026-05-04 04:08 36.44771 -87.15245 34989 ft 404 kts 318°
2026-05-04 04:09 36.49166 -87.19607 34986 ft 404 kts 318°
2026-05-04 04:09 36.53553 -87.23966 34988 ft 404 kts 318°
2026-05-04 04:10 36.57949 -87.28341 34998 ft 404 kts 318°
2026-05-04 04:10 36.62284 -87.32760 35003 ft 402 kts 315°
2026-05-04 04:11 36.66273 -87.37639 35009 ft 400 kts 311°
2026-05-04 04:11 36.70103 -87.42677 34991 ft 400 kts 311°
2026-05-04 04:12 36.73951 -87.47690 34981 ft 401 kts 311°
2026-05-04 04:12 36.77825 -87.52661 34995 ft 401 kts 311°
2026-05-04 04:13 36.81710 -87.57618 34985 ft 401 kts 311°
2026-05-04 04:13 36.85560 -87.62528 34988 ft 400 kts 312°
2026-05-04 04:14 36.89484 -87.67541 34970 ft 400 kts 311°
2026-05-04 04:14 36.93353 -87.72490 34974 ft 400 kts 311°
2026-05-04 04:15 36.97238 -87.77470 34965 ft 400 kts 311°
2026-05-04 04:15 37.01126 -87.82460 34938 ft 400 kts 311°
2026-05-04 04:16 37.04980 -87.87417 34915 ft 400 kts 311°
2026-05-04 04:16 37.08858 -87.92410 34916 ft 400 kts 311°
2026-05-04 04:17 37.12720 -87.97391 34920 ft 399 kts 311°
2026-05-04 04:17 37.16533 -88.02316 34922 ft 400 kts 311°
2026-05-04 04:18 37.20417 -88.07342 34929 ft 400 kts 311°
2026-05-04 04:18 37.24260 -88.12321 34933 ft 399 kts 311°
2026-05-04 04:19 37.28147 -88.17365 34931 ft 399 kts 311°
2026-05-04 04:19 37.31988 -88.22358 34932 ft 399 kts 311°
2026-05-04 04:20 37.35781 -88.27296 34929 ft 399 kts 311°
2026-05-04 04:20 37.39599 -88.32274 34933 ft 399 kts 311°
2026-05-04 04:21 37.43440 -88.37290 34925 ft 399 kts 311°
2026-05-04 04:21 37.47275 -88.42306 34921 ft 398 kts 311°
2026-05-04 04:22 37.50479 -88.46504 34917 ft 399 kts 311°
2026-05-04 04:22 37.54326 -88.51550 34920 ft 398 kts 311°
2026-05-04 04:23 37.58665 -88.57252 34914 ft 399 kts 311°
2026-05-04 04:23 37.61866 -88.61465 34903 ft 399 kts 311°
2026-05-04 04:24 37.65709 -88.66529 34913 ft 398 kts 311°
2026-05-04 04:24 37.69547 -88.71596 34910 ft 398 kts 311°
2026-05-04 04:25 37.73354 -88.76631 34907 ft 398 kts 311°
2026-05-04 04:25 37.77194 -88.81717 34902 ft 398 kts 311°
2026-05-04 04:26 37.81017 -88.86787 34904 ft 398 kts 311°
2026-05-04 04:26 37.84845 -88.91873 34902 ft 399 kts 311°
2026-05-04 04:27 37.88606 -88.96878 34906 ft 399 kts 311°
2026-05-04 04:27 37.92429 -89.01974 34898 ft 399 kts 311°
2026-05-04 04:28 37.96259 -89.07086 34892 ft 399 kts 311°
2026-05-04 04:28 38.00052 -89.12159 34894 ft 399 kts 311°
2026-05-04 04:29 38.03878 -89.17284 34870 ft 399 kts 311°
2026-05-04 04:29 38.07688 -89.22394 34888 ft 399 kts 311°
2026-05-04 04:30 38.11502 -89.27519 34885 ft 399 kts 311°
2026-05-04 04:30 38.15328 -89.32668 34880 ft 399 kts 311°
2026-05-04 04:31 38.19121 -89.37783 34851 ft 400 kts 311°
2026-05-04 04:31 38.22936 -89.42934 34852 ft 400 kts 311°
2026-05-04 04:32 38.26757 -89.48102 34842 ft 401 kts 311°
2026-05-04 04:32 38.30582 -89.53284 34838 ft 401 kts 311°
2026-05-04 04:33 38.34312 -89.58345 34842 ft 401 kts 311°
2026-05-04 04:33 38.38174 -89.63595 34849 ft 401 kts 311°
2026-05-04 04:34 38.41991 -89.68791 34842 ft 401 kts 311°
2026-05-04 04:34 38.45777 -89.73955 34853 ft 401 kts 311°
2026-05-04 04:35 38.49591 -89.79165 34849 ft 401 kts 311°
2026-05-04 04:35 38.53400 -89.84376 34844 ft 401 kts 311°
2026-05-04 04:36 38.57194 -89.89576 34847 ft 401 kts 311°
2026-05-04 04:36 38.60997 -89.94797 34844 ft 401 kts 311°
2026-05-04 04:37 38.68517 -90.05140 34838 ft 399 kts 311°
2026-05-04 04:38 38.72295 -90.10356 34826 ft 400 kts 311°
2026-05-04 04:38 38.76081 -90.15590 34817 ft 401 kts 311°
2026-05-04 04:39 38.79815 -90.20760 34795 ft 400 kts 311°
2026-05-04 04:39 38.83609 -90.26020 34801 ft 399 kts 311°
2026-05-04 04:40 38.87358 -90.31227 34810 ft 398 kts 311°
2026-05-04 04:40 38.91103 -90.36436 34811 ft 398 kts 311°
2026-05-04 04:41 38.94853 -90.41663 34805 ft 398 kts 311°
2026-05-04 04:41 38.98614 -90.46913 34799 ft 398 kts 311°
2026-05-04 04:42 39.02308 -90.52079 34802 ft 398 kts 311°
2026-05-04 04:42 39.06027 -90.57288 34806 ft 399 kts 311°
2026-05-04 04:43 39.09777 -90.62548 34805 ft 399 kts 311°
2026-05-04 04:43 39.13519 -90.67808 34811 ft 399 kts 311°
2026-05-04 04:44 39.17266 -90.73083 34819 ft 399 kts 311°
2026-05-04 04:44 39.21030 -90.78391 34819 ft 400 kts 311°
2026-05-04 04:45 39.24752 -90.83648 34824 ft 400 kts 311°
2026-05-04 04:47 39.37861 -91.02236 34861 ft 400 kts 311°
2026-05-04 04:47 39.41606 -91.07568 34893 ft 399 kts 311°
2026-05-04 04:48 39.45352 -91.12909 34914 ft 400 kts 311°
2026-05-04 04:49 39.54653 -91.26214 34936 ft 400 kts 311°
2026-05-04 04:49 39.58388 -91.31572 34826 ft 400 kts 311°
2026-05-04 04:50 39.62130 -91.36950 34823 ft 400 kts 311°
2026-05-04 04:50 39.65857 -91.42315 34833 ft 400 kts 311°
2026-05-04 04:51 39.69771 -91.47379 34822 ft 401 kts 318°
2026-05-04 04:51 39.74101 -91.51912 34823 ft 401 kts 320°
2026-05-04 04:52 39.78531 -91.56392 34840 ft 401 kts 320°
2026-05-04 04:52 39.82865 -91.60881 34827 ft 401 kts 320°
2026-05-04 04:53 39.87188 -91.65443 34828 ft 401 kts 319°
2026-05-04 04:53 39.91531 -91.70062 34819 ft 401 kts 319°
2026-05-04 04:54 39.95843 -91.74662 34817 ft 401 kts 319°
2026-05-04 04:54 40.00135 -91.79249 34822 ft 401 kts 320°
2026-05-04 04:55 40.04437 -91.83853 34815 ft 401 kts 320°
2026-05-04 04:55 40.08744 -91.88469 34820 ft 401 kts 320°
2026-05-04 04:56 40.13049 -91.93091 34802 ft 401 kts 320°
2026-05-04 04:56 40.17364 -91.97733 34828 ft 401 kts 320°
2026-05-04 04:57 40.21646 -92.02346 34822 ft 401 kts 320°
2026-05-04 04:57 40.25963 -92.07005 34810 ft 401 kts 320°
2026-05-04 04:58 40.30277 -92.11669 34829 ft 401 kts 320°
2026-05-04 04:58 40.34541 -92.16286 34835 ft 400 kts 320°
2026-05-04 04:59 40.38823 -92.20930 34833 ft 400 kts 320°
2026-05-04 04:59 40.43118 -92.25597 34832 ft 400 kts 320°
2026-05-04 05:00 40.47435 -92.30295 34831 ft 400 kts 320°
2026-05-04 05:01 40.53831 -92.37272 34814 ft 401 kts 320°
2026-05-04 05:01 40.58121 -92.41961 34832 ft 400 kts 320°
2026-05-04 05:02 40.62426 -92.46675 34824 ft 400 kts 320°
2026-05-04 05:02 40.66706 -92.51369 34824 ft 400 kts 320°
2026-05-04 05:03 40.70955 -92.56038 34804 ft 400 kts 320°
2026-05-04 05:04 40.79530 -92.65485 34794 ft 400 kts 320°
2026-05-04 05:04 40.83781 -92.70180 34809 ft 400 kts 320°
2026-05-04 05:06 41.00690 -92.88936 34786 ft 400 kts 320°
2026-05-04 05:07 41.04934 -92.93665 34789 ft 400 kts 320°
2026-05-04 05:07 41.09201 -92.98426 34791 ft 400 kts 320°
2026-05-04 05:09 41.28409 -93.19967 34772 ft 403 kts 320°
2026-05-04 05:10 41.31990 -93.24002 34773 ft 403 kts 320°
2026-05-04 05:10 41.36951 -93.29602 34784 ft 403 kts 320°
2026-05-04 05:11 41.40520 -93.33638 34777 ft 404 kts 319°
2026-05-04 05:11 41.45508 -93.39289 34778 ft 404 kts 319°
2026-05-04 05:12 41.49086 -93.43349 34781 ft 404 kts 319°
2026-05-04 05:12 41.53387 -93.48239 34772 ft 405 kts 319°
2026-05-04 05:13 41.57634 -93.53074 34781 ft 404 kts 319°
2026-05-04 05:13 41.61913 -93.57956 34773 ft 405 kts 319°
2026-05-04 05:14 41.66220 -93.62879 34777 ft 405 kts 319°
2026-05-04 05:14 41.70475 -93.67751 34773 ft 405 kts 319°
2026-05-04 05:15 41.74775 -93.72684 34768 ft 405 kts 319°
2026-05-04 05:15 41.79035 -93.77579 34779 ft 405 kts 319°
2026-05-04 05:16 41.83322 -93.82515 34716 ft 408 kts 319°
2026-05-04 05:16 41.87663 -93.87520 34752 ft 413 kts 319°
2026-05-04 05:17 41.92025 -93.92562 34790 ft 418 kts 319°
2026-05-04 05:17 41.96455 -93.97692 34789 ft 424 kts 319°
2026-05-04 05:18 42.00896 -94.02844 34783 ft 429 kts 319°
2026-05-04 05:18 42.05440 -94.08125 34783 ft 432 kts 319°
2026-05-04 05:19 42.09995 -94.13428 34778 ft 435 kts 319°
2026-05-04 05:19 42.14603 -94.18805 34783 ft 436 kts 319°
2026-05-04 05:20 42.19135 -94.24103 34787 ft 437 kts 318°
2026-05-04 05:20 42.23704 -94.29455 34785 ft 436 kts 318°
2026-05-04 05:21 42.28273 -94.34818 34782 ft 435 kts 318°
2026-05-04 05:21 42.32832 -94.40180 34774 ft 435 kts 318°
2026-05-04 05:22 42.37405 -94.45569 34772 ft 435 kts 318°
2026-05-04 05:22 42.41961 -94.50949 34770 ft 435 kts 318°
2026-05-04 05:23 42.46506 -94.56326 34771 ft 435 kts 318°
2026-05-04 05:23 42.51045 -94.61708 34774 ft 435 kts 318°
2026-05-04 05:24 42.55593 -94.67111 34775 ft 435 kts 318°
2026-05-04 05:24 42.60141 -94.72525 34772 ft 435 kts 318°
2026-05-04 05:25 42.64691 -94.77952 34765 ft 435 kts 318°
2026-05-04 05:25 42.69239 -94.83388 34761 ft 435 kts 318°
2026-05-04 05:26 42.73790 -94.88839 34758 ft 435 kts 318°
2026-05-04 05:26 42.78327 -94.94284 34754 ft 435 kts 318°
2026-05-04 05:28 42.96443 -95.16136 34722 ft 435 kts 318°
2026-05-04 05:29 43.00797 -95.21414 34724 ft 434 kts 318°
2026-05-04 05:29 43.05313 -95.26900 34718 ft 435 kts 318°
2026-05-04 05:31 43.23318 -95.48885 34725 ft 435 kts 318°
2026-05-04 05:32 43.27756 -95.54330 34718 ft 435 kts 318°
2026-05-04 05:33 43.34500 -95.62629 34720 ft 435 kts 318°
2026-05-04 05:33 43.39038 -95.68228 34716 ft 435 kts 318°
2026-05-04 05:34 43.43522 -95.73771 34722 ft 435 kts 318°
2026-05-04 05:34 43.48026 -95.79351 34722 ft 435 kts 318°
2026-05-04 05:35 43.52479 -95.84879 34721 ft 435 kts 318°
2026-05-04 05:35 43.56999 -95.90502 34716 ft 435 kts 318°
2026-05-04 05:36 43.61483 -95.96092 34718 ft 435 kts 318°
2026-05-04 05:36 43.65919 -96.01633 34707 ft 435 kts 317°
2026-05-04 05:37 43.70381 -96.07220 34709 ft 434 kts 317°
2026-05-04 05:37 43.74782 -96.12741 34711 ft 432 kts 317°
2026-05-04 05:38 43.81469 -96.21151 34696 ft 431 kts 317°
2026-05-04 05:38 43.85897 -96.26736 34698 ft 430 kts 317°
2026-05-04 05:39 43.92528 -96.35119 34693 ft 429 kts 317°
2026-05-04 05:40 43.99114 -96.43474 34693 ft 428 kts 317°
2026-05-04 05:40 44.03430 -96.48963 34690 ft 427 kts 317°
2026-05-04 05:41 44.07788 -96.54516 34703 ft 426 kts 317°
2026-05-04 05:41 44.12159 -96.60097 34693 ft 426 kts 317°
2026-05-04 05:42 44.16510 -96.65666 34696 ft 425 kts 317°
2026-05-04 05:42 44.20848 -96.71229 34684 ft 424 kts 317°
2026-05-04 05:43 44.25203 -96.76825 34680 ft 423 kts 317°
2026-05-04 05:45 44.42319 -96.98935 34688 ft 421 kts 317°
2026-05-04 05:47 44.59430 -97.21224 34644 ft 419 kts 317°
2026-05-04 05:47 44.63697 -97.26812 34655 ft 419 kts 317°
2026-05-04 05:48 44.67860 -97.32275 34648 ft 418 kts 316°
2026-05-04 05:48 44.72104 -97.37856 34647 ft 418 kts 316°
2026-05-04 05:49 44.76363 -97.43468 34642 ft 418 kts 316°
2026-05-04 05:49 44.80588 -97.49047 34640 ft 417 kts 316°
2026-05-04 05:51 44.97474 -97.71464 34620 ft 416 kts 316°
2026-05-04 05:52 45.01679 -97.77076 34611 ft 415 kts 316°
2026-05-04 05:52 45.05854 -97.82659 34621 ft 413 kts 316°
2026-05-04 05:54 45.22447 -98.04967 34606 ft 409 kts 315°
2026-05-04 05:55 45.26546 -98.10508 34594 ft 409 kts 315°
2026-05-04 05:55 45.30642 -98.16056 34592 ft 408 kts 315°
2026-05-04 05:56 45.34756 -98.21639 34591 ft 408 kts 315°
2026-05-04 05:56 45.38861 -98.27223 34590 ft 408 kts 315°
2026-05-04 05:57 45.42958 -98.32808 34592 ft 408 kts 315°
2026-05-04 05:57 45.47036 -98.38377 34559 ft 408 kts 314°
2026-05-04 05:58 45.50432 -98.43025 34563 ft 408 kts 314°
2026-05-04 05:58 45.54525 -98.48638 34557 ft 407 kts 314°
2026-05-04 05:59 45.58620 -98.54266 34566 ft 407 kts 314°
2026-05-04 05:59 45.62566 -98.59699 34563 ft 407 kts 314°
2026-05-04 06:00 45.66637 -98.65317 34564 ft 407 kts 314°
2026-05-04 06:00 45.70719 -98.70962 34560 ft 407 kts 314°
2026-05-04 06:01 45.74792 -98.76608 34554 ft 407 kts 314°
2026-05-04 06:03 45.91022 -98.99219 34541 ft 408 kts 313°
2026-05-04 06:05 46.09169 -99.24737 34535 ft 408 kts 313°
2026-05-04 06:06 46.13222 -99.30470 34530 ft 409 kts 313°
2026-05-04 06:06 46.17270 -99.36207 34525 ft 408 kts 313°
2026-05-04 06:07 46.21304 -99.41938 34525 ft 407 kts 313°
2026-05-04 06:07 46.25306 -99.47634 34523 ft 406 kts 313°
2026-05-04 06:08 46.29328 -99.53373 34530 ft 405 kts 313°
2026-05-04 06:08 46.33344 -99.59116 34526 ft 405 kts 313°
2026-05-04 06:09 46.37349 -99.64856 34524 ft 404 kts 313°
2026-05-04 06:11 46.53140 -99.87607 34549 ft 402 kts 312°
2026-05-04 06:13 46.68797 -100.10363 34575 ft 401 kts 312°
2026-05-04 06:14 46.82436 -100.30348 34587 ft 400 kts 311°
2026-05-04 06:15 46.86363 -100.36130 34603 ft 400 kts 311°
2026-05-04 06:15 46.90285 -100.41918 34600 ft 400 kts 311°
2026-05-04 06:16 46.94187 -100.47688 34611 ft 400 kts 311°
2026-05-04 06:16 46.98105 -100.53496 34587 ft 400 kts 311°
2026-05-04 06:17 47.01995 -100.59274 34618 ft 400 kts 311°
2026-05-04 06:17 47.05907 -100.65098 34619 ft 400 kts 311°
2026-05-04 06:18 47.09799 -100.70906 34618 ft 400 kts 311°
2026-05-04 06:20 47.25311 -100.94180 34605 ft 400 kts 311°
2026-05-04 06:21 47.34636 -101.08270 34609 ft 398 kts 310°
2026-05-04 06:22 47.38493 -101.14123 34609 ft 397 kts 310°
2026-05-04 06:25 47.65234 -101.55050 34611 ft 393 kts 310°
2026-05-04 06:26 47.69010 -101.60880 34616 ft 393 kts 310°
2026-05-04 06:26 47.72785 -101.66723 34630 ft 392 kts 310°
2026-05-04 06:27 47.82165 -101.81298 34619 ft 392 kts 310°
2026-05-04 06:28 47.84512 -101.84957 34618 ft 391 kts 310°
2026-05-04 06:29 47.86215 -101.87616 34616 ft 391 kts 310°
2026-05-04 06:29 47.89976 -101.93497 34622 ft 391 kts 310°
2026-05-04 06:30 47.93707 -101.99344 34625 ft 391 kts 310°
2026-05-04 06:30 47.97327 -102.05029 34621 ft 391 kts 310°
2026-05-04 06:31 48.00964 -102.10754 34615 ft 392 kts 310°
2026-05-04 06:31 48.04729 -102.16694 34625 ft 392 kts 310°
2026-05-04 06:33 48.19463 -102.40067 34633 ft 392 kts 309°
2026-05-04 06:34 48.23166 -102.45976 34628 ft 391 kts 309°
2026-05-04 06:34 48.26829 -102.51832 34625 ft 392 kts 309°
2026-05-04 06:36 48.41471 -102.75377 34648 ft 392 kts 309°
2026-05-04 06:37 48.45221 -102.81442 34662 ft 392 kts 309°
2026-05-04 06:37 48.48908 -102.87418 34665 ft 392 kts 309°
2026-05-04 06:38 48.52621 -102.93450 34667 ft 392 kts 309°
2026-05-04 06:40 48.66076 -103.15428 34690 ft 393 kts 309°
2026-05-04 06:40 48.69573 -103.21171 34698 ft 393 kts 309°
2026-05-04 06:41 48.72943 -103.26716 34698 ft 393 kts 309°
2026-05-04 06:41 48.76355 -103.32342 34713 ft 393 kts 309°
2026-05-04 06:42 48.79516 -103.37566 34705 ft 393 kts 309°
2026-05-04 06:44 48.93275 -103.60429 34713 ft 394 kts 310°
2026-05-04 06:44 48.96951 -103.66571 34721 ft 394 kts 310°
2026-05-04 06:45 49.00626 -103.72726 34717 ft 395 kts 310°
2026-05-04 06:45 49.04258 -103.78823 34732 ft 395 kts 310°
2026-05-04 06:46 49.07963 -103.85058 34726 ft 396 kts 310°
2026-05-04 06:46 49.11213 -103.90538 34730 ft 396 kts 310°
2026-05-04 06:48 49.25141 -104.14160 34747 ft 400 kts 310°
2026-05-04 06:50 49.39831 -104.39309 34764 ft 402 kts 310°
2026-05-04 06:51 49.43546 -104.45707 34759 ft 402 kts 310°
2026-05-04 06:51 49.47274 -104.52145 34776 ft 402 kts 310°
2026-05-04 06:52 49.51003 -104.58600 34767 ft 403 kts 310°
2026-05-04 06:52 49.54715 -104.65040 34770 ft 403 kts 310°
2026-05-04 06:53 49.58448 -104.71535 34786 ft 404 kts 310°
2026-05-04 06:53 49.62148 -104.77987 34780 ft 404 kts 310°
2026-05-04 06:54 49.65869 -104.84493 34767 ft 405 kts 310°
2026-05-04 06:54 49.69579 -104.90996 34764 ft 405 kts 310°
2026-05-04 06:55 49.73318 -104.97566 34791 ft 404 kts 310°
2026-05-04 06:55 49.76957 -105.03975 34796 ft 404 kts 310°
2026-05-04 06:57 49.91516 -105.29782 34814 ft 405 kts 310°
2026-05-04 06:58 49.95189 -105.36333 34795 ft 405 kts 310°
2026-05-04 06:58 49.98837 -105.42855 34801 ft 406 kts 310°
2026-05-04 06:59 50.02477 -105.49381 34840 ft 406 kts 311°
2026-05-04 06:59 50.06178 -105.56032 34831 ft 406 kts 311°
2026-05-04 07:01 50.20964 -105.82777 34828 ft 407 kts 311°
2026-05-04 07:02 50.24637 -105.89465 34819 ft 407 kts 311°
2026-05-04 07:02 50.28315 -105.96177 34832 ft 407 kts 311°
2026-05-04 07:03 50.31987 -106.02896 34826 ft 407 kts 310°
2026-05-04 07:03 50.35665 -106.09645 34833 ft 407 kts 310°
2026-05-04 07:04 50.39337 -106.16401 34837 ft 406 kts 311°
2026-05-04 07:04 50.42991 -106.23141 34847 ft 406 kts 311°
2026-05-04 07:05 50.46209 -106.29089 34849 ft 406 kts 310°
2026-05-04 07:05 50.49855 -106.35848 34844 ft 406 kts 310°
2026-05-04 07:06 50.55200 -106.45787 34871 ft 406 kts 310°
2026-05-04 07:07 50.58860 -106.52614 34848 ft 406 kts 310°
2026-05-04 07:09 50.73318 -106.79765 34862 ft 406 kts 310°
2026-05-04 07:09 50.76029 -106.84888 34867 ft 406 kts 310°
2026-05-04 07:10 50.79524 -106.91507 34856 ft 407 kts 310°
2026-05-04 07:12 50.93920 -107.18952 34855 ft 407 kts 310°
2026-05-04 07:12 50.97542 -107.25905 34856 ft 407 kts 310°
2026-05-04 07:13 51.01083 -107.32718 34876 ft 407 kts 310°
2026-05-04 07:13 51.04660 -107.39621 34864 ft 408 kts 310°
2026-05-04 07:14 51.13583 -107.56919 34857 ft 408 kts 310°
2026-05-04 07:15 51.17193 -107.63951 34855 ft 408 kts 310°
2026-05-04 07:15 51.20713 -107.70827 34858 ft 408 kts 310°
2026-05-04 07:16 51.24301 -107.77853 34871 ft 408 kts 310°
2026-05-04 07:16 51.27878 -107.84878 34870 ft 407 kts 310°
2026-05-04 07:17 51.31444 -107.91901 34864 ft 407 kts 310°
2026-05-04 07:17 51.34974 -107.98871 34865 ft 407 kts 310°
2026-05-04 07:18 51.38522 -108.05895 34887 ft 407 kts 310°
2026-05-04 07:18 51.42108 -108.13014 34897 ft 406 kts 310°
2026-05-04 07:19 51.45632 -108.20029 34901 ft 406 kts 310°
2026-05-04 07:19 51.48923 -108.27422 34915 ft 407 kts 305°
2026-05-04 07:20 51.51915 -108.35147 34922 ft 408 kts 304°
2026-05-04 07:20 51.54798 -108.42679 34919 ft 408 kts 304°
2026-05-04 07:22 51.66876 -108.73675 34925 ft 408 kts 305°
2026-05-04 07:23 51.69882 -108.81416 34921 ft 409 kts 305°
2026-05-04 07:23 51.72874 -108.89148 34922 ft 408 kts 305°
2026-05-04 07:24 51.75807 -108.96750 34910 ft 408 kts 305°
2026-05-04 07:24 51.78820 -109.04583 34910 ft 409 kts 305°
2026-05-04 07:26 51.90723 -109.35763 34930 ft 407 kts 305°
2026-05-04 07:27 51.93688 -109.43587 34936 ft 407 kts 305°
2026-05-04 07:27 51.96631 -109.51381 34932 ft 407 kts 305°
2026-05-04 07:28 51.99102 -109.57941 34920 ft 407 kts 305°
2026-05-04 07:28 52.02045 -109.65778 34920 ft 406 kts 305°
2026-05-04 07:29 52.05451 -109.74878 34922 ft 406 kts 305°
2026-05-04 07:29 52.07904 -109.81451 34937 ft 406 kts 305°
2026-05-04 07:30 52.10827 -109.89307 34938 ft 405 kts 305°
2026-05-04 07:30 52.13715 -109.97093 34941 ft 405 kts 305°
2026-05-04 07:31 52.16624 -110.04958 34942 ft 405 kts 305°
2026-05-04 07:33 52.28185 -110.36465 34954 ft 404 kts 305°
2026-05-04 07:33 52.31048 -110.44326 34950 ft 404 kts 305°
2026-05-04 07:34 52.33922 -110.52244 34953 ft 403 kts 305°
2026-05-04 07:34 52.36753 -110.60079 34761 ft 391 kts 305°
2026-05-04 07:35 52.38100 -110.63819 34251 ft 387 kts 306°
2026-05-04 07:35 52.39461 -110.67599 33556 ft 386 kts 306°
2026-05-04 07:35 52.40841 -110.71425 32617 ft 388 kts 306°
2026-05-04 07:35 52.42220 -110.75253 31657 ft 390 kts 306°
2026-05-04 07:36 52.43573 -110.79026 31352 ft 378 kts 306°
2026-05-04 07:36 52.44914 -110.82772 30941 ft 383 kts 306°
2026-05-04 07:38 52.54487 -111.09637 28171 ft 392 kts 306°
2026-05-04 07:38 52.55871 -111.13544 27753 ft 393 kts 306°
2026-05-04 07:38 52.57252 -111.17450 27225 ft 397 kts 305°
2026-05-04 07:38 52.58571 -111.21183 26750 ft 399 kts 305°
2026-05-04 07:39 52.59978 -111.25175 26241 ft 401 kts 305°
2026-05-04 07:39 52.61378 -111.29154 25735 ft 403 kts 305°
2026-05-04 07:39 52.62779 -111.33147 25079 ft 402 kts 305°
2026-05-04 07:39 52.64143 -111.37042 24396 ft 397 kts 305°
2026-05-04 07:40 52.65513 -111.40967 23718 ft 391 kts 304°
2026-05-04 07:40 52.66865 -111.44841 22929 ft 387 kts 304°
2026-05-04 07:40 52.68197 -111.48662 22129 ft 384 kts 304°
2026-05-04 07:40 52.69525 -111.52473 21359 ft 382 kts 304°
2026-05-04 07:41 52.70846 -111.56267 20568 ft 380 kts 304°
2026-05-04 07:41 52.72153 -111.60031 19956 ft 374 kts 304°
2026-05-04 07:41 52.73439 -111.63740 19482 ft 373 kts 304°
2026-05-04 07:41 52.74730 -111.67463 18999 ft 376 kts 303°
2026-05-04 07:42 52.76028 -111.71211 18517 ft 374 kts 303°
2026-05-04 07:42 52.77312 -111.74928 17999 ft 372 kts 303°
2026-05-04 07:42 52.78586 -111.78624 17745 ft 368 kts 303°
2026-05-04 07:42 52.79849 -111.82293 17451 ft 370 kts 303°
2026-05-04 07:43 52.81099 -111.85934 17178 ft 360 kts 303°
2026-05-04 07:43 52.82323 -111.89514 16903 ft 347 kts 303°
2026-05-04 07:43 52.83491 -111.92934 16704 ft 333 kts 303°
2026-05-04 07:43 52.84585 -111.96141 16648 ft 317 kts 303°
2026-05-04 07:44 52.85647 -111.99255 16486 ft 305 kts 303°
2026-05-04 07:44 52.86673 -112.02262 16345 ft 294 kts 304°
2026-05-04 07:44 52.87660 -112.05154 16212 ft 284 kts 304°
2026-05-04 07:44 52.88620 -112.07966 16061 ft 278 kts 304°
2026-05-04 07:45 52.89569 -112.10744 15938 ft 277 kts 304°
2026-05-04 07:45 52.90521 -112.13533 15824 ft 278 kts 304°
2026-05-04 07:45 52.91467 -112.16311 15677 ft 278 kts 304°
2026-05-04 07:45 52.92423 -112.19123 15563 ft 278 kts 303°
2026-05-04 07:46 52.93372 -112.21920 15429 ft 279 kts 303°
2026-05-04 07:46 52.94327 -112.24740 15298 ft 279 kts 303°
2026-05-04 07:46 52.95273 -112.27537 15177 ft 280 kts 303°
2026-05-04 07:46 52.96227 -112.30362 15049 ft 280 kts 303°
2026-05-04 07:47 52.97166 -112.33149 14927 ft 280 kts 303°
2026-05-04 07:47 52.98114 -112.35961 14802 ft 280 kts 303°
2026-05-04 07:47 52.99065 -112.38789 14680 ft 280 kts 303°
2026-05-04 07:49 53.04056 -112.59690 13735 ft 285 kts 283°
2026-05-04 07:49 53.04230 -112.62611 13706 ft 282 kts 283°
2026-05-04 07:49 53.04423 -112.65791 13674 ft 283 kts 283°
2026-05-04 07:50 53.04659 -112.69078 13645 ft 286 kts 286°
2026-05-04 07:50 53.05053 -112.72325 13623 ft 284 kts 289°
2026-05-04 07:50 53.05494 -112.75521 13597 ft 282 kts 289°
2026-05-04 07:50 53.05954 -112.78633 13566 ft 282 kts 290°
2026-05-04 07:51 53.06395 -112.81565 13541 ft 282 kts 290°
2026-05-04 07:51 53.06879 -112.84754 13500 ft 281 kts 290°
2026-05-04 07:51 53.07361 -112.87914 13456 ft 282 kts 290°
2026-05-04 07:51 53.07844 -112.91075 13381 ft 283 kts 290°
2026-05-04 07:52 53.08321 -112.94205 13312 ft 277 kts 290°
2026-05-04 07:52 53.08781 -112.97268 13211 ft 262 kts 290°
2026-05-04 07:52 53.09192 -113.00096 13134 ft 248 kts 290°
2026-05-04 07:52 53.09584 -113.02859 12758 ft 241 kts 290°
2026-05-04 07:53 53.09986 -113.05609 11796 ft 252 kts 290°
2026-05-04 07:54 53.12963 -113.24901 7918 ft 224 kts 290°
2026-05-04 07:55 53.13328 -113.27346 7703 ft 211 kts 290°
2026-05-04 07:55 53.13853 -113.29483 7425 ft 193 kts 313°
2026-05-04 07:55 53.14746 -113.31053 7082 ft 186 kts 316°
2026-05-04 07:55 53.15571 -113.32640 6870 ft 176 kts 313°
2026-05-04 07:56 53.16350 -113.34216 6479 ft 176 kts 315°
2026-05-04 07:56 53.17133 -113.35938 6010 ft 193 kts 307°
2026-05-04 07:56 53.17787 -113.37696 5736 ft 189 kts 306°
2026-05-04 07:56 53.18508 -113.39695 5010 ft 205 kts 306°
2026-05-04 07:57 53.19303 -113.41625 4655 ft 195 kts 311°
2026-05-04 07:57 53.20127 -113.43300 4750 ft 188 kts 315°
2026-05-04 07:57 53.21002 -113.44991 4953 ft 194 kts 315°
2026-05-04 07:57 53.21886 -113.46513 4747 ft 180 kts 321°
2026-05-04 07:58 53.22760 -113.47884 4535 ft 170 kts 321°
2026-05-04 07:58 53.23619 -113.49208 4143 ft 169 kts 322°
2026-05-04 07:58 53.24488 -113.50526 3774 ft 167 kts 323°
2026-05-04 07:58 53.25324 -113.51737 3715 ft 150 kts 322°
2026-05-04 07:59 53.26039 -113.52811 3477 ft 140 kts 323°
2026-05-04 07:59 53.26799 -113.53847 3329 ft 145 kts 325°
2026-05-04 07:59 53.27575 -113.54818 2931 ft 138 kts 326°
2026-05-04 07:59 53.28375 -113.55913 2718 ft 152 kts 320°
2026-05-04 08:00 53.29152 -113.57073 2385 ft 143 kts 318°
2026-05-04 08:00 53.29782 -113.58125 2383 ft 115 kts 308°
2026-05-04 08:00 53.30093 -113.58740 2383 ft 44 kts 316°
2026-05-04 08:02 53.30826 -113.59245 2383 ft 16 kts 57°
2026-05-04 08:02 53.30845 -113.59047 2383 ft 20 kts 85°
2026-05-04 08:02 53.30856 -113.58839 2383 ft 15 kts 84°
2026-05-04 08:03 53.30881 -113.58708 2383 ft 11 kts 75°
2026-05-04 08:03 53.30886 -113.58673 2383 ft 0 kts 87°
2026-05-04 08:03 53.30891 -113.58646 2387 ft 11 kts 73°